Weather History for KLEB - December, 2012

Change the Weather History Date:

Friday, December 21, 2012

  Actual Average Record
Temperature  
Mean Temperature 42 °F -  
Max Temperature 51 °F 31 °F 59 °F (1957)
Min Temperature 33 °F 12 °F -22 °F (1980)
Degree Days  
Heating Degree Days 23    
Moisture  
Dew Point 33 °F    
Average Humidity 81    
Maximum Humidity 89    
Minimum Humidity 68    
Precipitation  
Precipitation 0.86 in - - ()
Sea Level Pressure  
Sea Level Pressure 29.48 in    
Wind  
Wind Speed 5 mph (SE)    
Max Wind Speed 16 mph    
Max Gust Speed 36 mph    
Visibility 5 miles    
Events Rain , Snow    
Averages and records for this station are not official NWS values.
T = Trace of Precipitation, MM = Missing Value Source: NWS Daily Summary

Daily Weather History Graph

Daily Weather History Graph

Search for Another Location

Airport or City:

Trip Planner

Search our weather history database for the weather conditions in past years. The results will help you decide how hot, cold, wet, or windy it might be!

Date:

Astronomy

Dec. 21, 2012 Rise Set
Actual Time 7:19 AM EST 4:15 PM EST
Civil Twilight 6:46 AM EST 4:48 PM EST
Nautical Twilight 6:10 AM EST 5:24 PM EST
Astronomical Twilight 5:35 AM EST 5:59 PM EST
Moon 12:08 PM EST (12/21) 12:55 AM EST (12/21)
Length of Visible Light 10h 01m
Length of Day
8h 55m
Waxing Gibbous, 64% of the Moon is Illuminated
Dec 21
Waxing Gibbous
Dec 28
Full
Jan 4
Last Quarter
Jan 11
New
Jan 18
First Quarter

Hourly Weather History & Observations

Time (EST) Temp. Windchill Dew Point Humidity Pressure Visibility Wind Dir Wind Speed Gust Speed Precip Events Conditions
12:27 AM 35.6 °F 30.7 °F 28.4 °F 75% 29.94 in 2.5 mi ESE 5.8 mph - 0.00 in Snow Light Snow
12:42 AM 35.6 °F 32.8 °F 28.4 °F 75% 29.94 in 4.0 mi Variable 3.5 mph - 0.00 in Snow Light Snow
12:53 AM 35.1 °F 32.2 °F 28.9 °F 78% 29.97 in 2.0 mi Variable 3.5 mph - 0.00 in Snow Light Snow
1:03 AM 33.8 °F - 30.2 °F 87% 29.95 in 1.5 mi Calm Calm - 0.01 in Snow Light Snow
1:17 AM 33.8 °F 30.8 °F 30.2 °F 87% 29.93 in 1.5 mi Variable 3.5 mph - 0.02 in Snow Light Snow
1:37 AM 33.8 °F - 30.2 °F 87% 29.90 in 1.8 mi Calm Calm - 0.03 in Snow Light Snow
1:49 AM 33.8 °F - 30.2 °F 87% 29.88 in 2.0 mi Calm Calm - 0.03 in Snow Light Snow
1:53 AM 34.0 °F 29.8 °F 30.0 °F 85% 29.90 in 2.0 mi Variable 4.6 mph - 0.03 in Snow Light Snow
2:02 AM 33.8 °F - 30.2 °F 87% 29.88 in 3.0 mi Calm Calm - 0.00 in Snow Light Snow
2:26 AM 33.8 °F 29.6 °F 30.2 °F 87% 29.86 in 2.5 mi Variable 4.6 mph - 0.00 in Snow Light Snow
2:53 AM 35.1 °F 32.2 °F 30.0 °F 82% 29.87 in 2.5 mi Variable 3.5 mph - 0.01 in Snow Light Snow
3:15 AM 35.6 °F - 30.2 °F 81% 29.83 in 3.0 mi Calm Calm - 0.01 in Snow Light Snow
3:31 AM 35.6 °F 32.8 °F 30.2 °F 81% 29.81 in 2.0 mi SE 3.5 mph - 0.02 in Snow Light Snow
3:48 AM 33.8 °F 30.8 °F 30.2 °F 87% 29.79 in 1.8 mi Variable 3.5 mph - 0.04 in Snow Light Snow
3:53 AM 34.0 °F - 30.9 °F 89% 29.81 in 2.0 mi Calm Calm - 0.04 in Snow Light Snow
4:04 AM 33.8 °F - 30.2 °F 87% 29.78 in 1.8 mi Calm Calm - 0.01 in Snow Light Snow
4:14 AM 33.8 °F - 30.2 °F 87% 29.78 in 1.2 mi Calm Calm - 0.02 in Snow Light Snow
4:35 AM 33.8 °F - 30.2 °F 87% 29.76 in 1.0 mi Calm Calm - 0.06 in Snow Light Snow
4:51 AM 33.8 °F - 30.2 °F 87% 29.74 in 2.0 mi Calm Calm - 0.07 in Snow Light Snow
4:53 AM 34.0 °F 31.0 °F 30.9 °F 89% 29.76 in 2.5 mi Variable 3.5 mph - 0.08 in Snow Light Snow
4:58 AM 33.8 °F 28.6 °F 30.2 °F 87% 29.73 in 3.0 mi East 5.8 mph - 0.00 in Snow Light Snow
5:05 AM 35.6 °F 31.7 °F 30.2 °F 81% 29.72 in 6.0 mi ENE 4.6 mph - 0.00 in Snow Light Snow
5:18 AM 33.8 °F 28.6 °F 30.2 °F 87% 29.70 in 6.0 mi ENE 5.8 mph - 0.00 in Snow Light Snow
5:41 AM 35.6 °F 31.7 °F 30.2 °F 81% 29.65 in 10.0 mi Variable 4.6 mph - 0.00 in   Overcast
5:53 AM 36.0 °F - 30.9 °F 82% 29.67 in 10.0 mi Calm Calm - 0.00 in   Overcast
6:29 AM 33.8 °F - 30.2 °F 87% 29.64 in 6.0 mi Calm Calm - N/A   Overcast
6:53 AM 35.1 °F - 32.0 °F 89% 29.63 in 10.0 mi Calm Calm - N/A   Overcast
7:04 AM 35.6 °F 32.8 °F 32.0 °F 87% 29.60 in 10.0 mi Variable 3.5 mph - N/A   Overcast
7:53 AM 37.9 °F 32.7 °F 33.1 °F 83% 29.57 in 6.0 mi Variable 6.9 mph - N/A   Haze
8:53 AM 39.0 °F 33.4 °F 33.1 °F 79% 29.55 in 9.0 mi ESE 8.1 mph - 0.01 in Rain Light Rain
9:39 AM 37.4 °F 32.8 °F 33.8 °F 87% 29.45 in 2.0 mi Variable 5.8 mph 17.3 mph 0.06 in Rain Rain
9:51 AM 39.2 °F 35.9 °F 33.8 °F 81% 29.44 in 1.5 mi Variable 4.6 mph 20.7 mph 0.14 in Rain Heavy Rain
9:53 AM 39.0 °F 32.3 °F 34.0 °F 82% 29.45 in 1.5 mi East 10.4 mph 19.6 mph 0.16 in Rain Heavy Rain
9:59 AM 39.2 °F 34.2 °F 33.8 °F 81% 29.42 in 2.0 mi Variable 6.9 mph 19.6 mph 0.01 in Rain Rain
10:15 AM 39.2 °F 37.0 °F 33.8 °F 81% 29.41 in 3.0 mi Variable 3.5 mph - 0.05 in Rain Light Rain
10:22 AM 39.2 °F 33.0 °F 33.8 °F 81% 29.40 in 2.5 mi East 9.2 mph - 0.06 in Rain Light Rain
10:31 AM 39.2 °F 33.6 °F 33.8 °F 81% 29.39 in 2.5 mi East 8.1 mph 18.4 mph 0.07 in Rain Light Rain
10:53 AM 39.9 °F - 35.1 °F 83% 29.35 in 2.5 mi Calm Calm - 0.14 in Rain Rain
11:01 AM 39.2 °F 35.9 °F 35.6 °F 87% 29.34 in 1.2 mi Variable 4.6 mph - 0.07 in Rain Heavy Rain
11:10 AM 41.0 °F 35.8 °F 35.6 °F 81% 29.32 in 3.0 mi ESE 8.1 mph - 0.09 in Rain Light Rain
11:29 AM 41.0 °F 37.1 °F 35.6 °F 81% 29.26 in 2.0 mi Variable 5.8 mph - 0.17 in Rain Rain
11:36 AM 42.8 °F 38.0 °F 35.6 °F 76% 29.24 in 3.0 mi East 8.1 mph - 0.18 in Rain Light Rain
11:53 AM 43.0 °F 36.4 °F 37.0 °F 80% 29.22 in 5.0 mi ESE 12.7 mph 29.9 mph 0.19 in Rain Light Rain
12:53 PM 46.0 °F 39.6 °F 39.9 °F 79% 29.07 in 5.0 mi East 15.0 mph 35.7 mph 0.03 in Rain Light Rain
1:53 PM 48.0 °F - 42.1 °F 80% 28.98 in 2.5 mi East 15.0 mph 34.5 mph 0.03 in Rain Light Rain
2:53 PM 51.1 °F - 46.0 °F 83% 28.98 in 2.5 mi South 15.0 mph 23.0 mph 0.07 in Rain Light Rain
3:07 PM 50.0 °F - 46.4 °F 87% 28.96 in 2.5 mi South 9.2 mph - 0.05 in Rain Light Rain
3:20 PM 51.8 °F - 46.4 °F 82% 28.95 in 5.0 mi SSE 8.1 mph - 0.05 in   Overcast
3:53 PM 51.1 °F - 42.1 °F 71% 28.96 in 5.0 mi SE 11.5 mph 19.6 mph 0.05 in   Haze
4:49 PM 46.4 °F 40.4 °F 39.2 °F 76% 29.02 in 10.0 mi SW 13.8 mph 28.8 mph 0.02 in   Overcast
4:53 PM 45.0 °F 38.5 °F 37.9 °F 76% 29.03 in 10.0 mi SW 13.8 mph 20.7 mph 0.02 in   Overcast
5:20 PM 42.8 °F 35.1 °F 33.8 °F 70% 29.05 in 10.0 mi South 16.1 mph 20.7 mph N/A   Mostly Cloudy
5:53 PM 39.0 °F 33.4 °F 30.9 °F 73% 29.08 in 10.0 mi South 8.1 mph 16.1 mph N/A   Mostly Cloudy
6:30 PM 37.4 °F 29.8 °F 30.2 °F 75% 29.08 in 10.0 mi South 11.5 mph - N/A   Mostly Cloudy
6:53 PM 37.9 °F 29.6 °F 30.9 °F 76% 29.10 in 10.0 mi South 13.8 mph - N/A   Overcast
7:53 PM 37.9 °F 32.1 °F 30.9 °F 76% 29.12 in 10.0 mi South 8.1 mph - N/A   Overcast
8:53 PM 37.0 °F 29.8 °F 30.0 °F 76% 29.13 in 10.0 mi South 10.4 mph - N/A   Overcast
9:53 PM 37.9 °F 32.1 °F 30.0 °F 73% 29.14 in 10.0 mi South 8.1 mph - N/A   Overcast
10:25 PM 37.4 °F 30.8 °F 28.4 °F 70% 29.13 in 10.0 mi South 9.2 mph - N/A   Overcast
10:53 PM 37.9 °F 31.5 °F 28.9 °F 70% 29.14 in 10.0 mi South 9.2 mph - N/A   Overcast
11:53 PM 37.9 °F 31.5 °F 28.0 °F 68% 29.14 in 10.0 mi SSW 9.2 mph - N/A   Overcast